K2HF Mattituck NY US current weather conditions

sailwx.info

Wind from 223 at 12 knots gusting 17

Air temperature 2.8° C
Dewpoint -2.7° C

Last reported at 2019-Dec-06 04:09 UTC.
Time now 2019-Dec-06 05:16 UTC

Location: N 41°01' W 072°33'.
View on Google Maps.

See reports from other nearby stations

  
Tides and Currents Weather Stations Pressure Air Temp Water Temp Dewpoint Dewpoint Depression Visibility Wind Speed Wind Dir Waves Ship Positions
date/time (UTC)wind fromknots sea level pressurealtimeterstation pressurevisibilityair tempwater tempwave heightnotes
2019-Dec-06 04:09 223 12 gusting 17 2.8
2019-Dec-06 04:04 221 11 gusting 17 2.8
2019-Dec-06 03:58 229 11 gusting 17 2.8
2019-Dec-06 03:54 224 11 gusting 17 3.3
2019-Dec-06 03:49 198 11 gusting 18 3.3
2019-Dec-06 03:43 231 11 gusting 19 3.3
2019-Dec-06 03:39 231 11 gusting 16 3.3
2019-Dec-06 03:34 228 11 gusting 16 3.3
2019-Dec-06 03:29 238 10 gusting 17 3.3
2019-Dec-06 03:23 236 10 gusting 17 3.3
2019-Dec-06 03:18 212 10 gusting 17 3.3
2019-Dec-06 03:13 203 11 gusting 17 3.3
2019-Dec-06 03:09 206 11 gusting 17 3.3
2019-Dec-06 03:04 213 11 gusting 17 3.3
2019-Dec-06 02:58 231 11 gusting 17 3.3
2019-Dec-06 02:54 218 11 gusting 16 3.3
2019-Dec-06 02:49 199 11 gusting 19 3.3
2019-Dec-06 02:43 200 11 gusting 19 3.3
2019-Dec-06 02:39 210 11 gusting 19 3.3
2019-Dec-06 02:34 232 10 gusting 17 3.3
2019-Dec-06 02:28 215 11 gusting 16 3.3
2019-Dec-06 02:24 212 11 gusting 16 3.3
2019-Dec-06 02:19 210 11 gusting 17 3.3
2019-Dec-06 02:14 226 11 gusting 17 3.3
2019-Dec-06 02:09 214 11 gusting 18 3.3
2019-Dec-06 02:04 201 11 gusting 18 3.3
2019-Dec-06 01:59 215 11 gusting 18 3.3
2019-Dec-06 01:54 195 11 gusting 18 3.3
2019-Dec-06 01:49 203 12 gusting 18 3.3
2019-Dec-06 01:44 224 13 gusting 19 3.3
2019-Dec-06 01:39 181 13 gusting 19 3.3
2019-Dec-06 01:34 208 13 gusting 19 3.3
2019-Dec-06 01:29 177 13 gusting 19 3.3
2019-Dec-06 01:24 212 13 gusting 19 3.9
2019-Dec-06 01:19 226 13 gusting 19 3.9
2019-Dec-06 01:14 207 13 gusting 19 3.9
2019-Dec-06 01:09 204 13 gusting 19 3.9
2019-Dec-06 01:04 216 13 gusting 19 3.9
2019-Dec-06 00:59 199 13 gusting 19 3.9
2019-Dec-06 00:54 199 11 gusting 19 3.9
2019-Dec-06 00:49 184 9 gusting 14 3.9
2019-Dec-06 00:44 231 9 gusting 15 3.9
2019-Dec-06 00:39 232 10 gusting 15 3.9
2019-Dec-06 00:34 202 10 gusting 14 3.9
2019-Dec-06 00:29 213 10 gusting 14 3.9
2019-Dec-06 00:24 233 11 gusting 17 3.9
2019-Dec-06 00:19 227 10 gusting 17 3.9
2019-Dec-06 00:14 206 11 gusting 26 3.9
2019-Dec-06 00:10 223 12 gusting 26 3.9
2019-Dec-06 00:05 235 12 gusting 26 3.9
2019-Dec-06 00:00 234 10 gusting 16 3.9
2019-Dec-05 23:55 240 10 gusting 17 3.9
2019-Dec-05 23:49 231 12 gusting 18 3.9
2019-Dec-05 23:44 240 11 gusting 18 3.9
2019-Dec-05 23:40 236 11 gusting 18 3.9
2019-Dec-05 23:33 240 10 gusting 15 3.9
2019-Dec-05 23:30 211 9 gusting 15 3.9
2019-Dec-05 23:25 240 10 gusting 18 3.9
2019-Dec-05 23:19 240 11 gusting 18 3.9
2019-Dec-05 23:14 242 12 gusting 20 3.9
2019-Dec-05 23:10 217 13 gusting 20 4.4
2019-Dec-05 23:04 206 13 gusting 20 4.4
2019-Dec-05 23:00 234 13 gusting 19 4.4
2019-Dec-05 22:54 198 13 gusting 19 4.4
2019-Dec-05 22:48 229 13 gusting 19 4.4
2019-Dec-05 22:44 213 13 gusting 19 4.4
2019-Dec-05 22:38 209 12 gusting 19 4.4
2019-Dec-05 22:34 238 12 gusting 19 4.4
2019-Dec-05 22:29 236 12 gusting 17 4.4
2019-Dec-05 22:24 224 12 gusting 17 4.4
2019-Dec-05 22:18 207 13 gusting 19 4.4
2019-Dec-05 22:13 211 13 gusting 19 4.4
2019-Dec-05 22:08 218 13 gusting 19 4.4
2019-Dec-05 22:04 248 12 gusting 19 5.0
2019-Dec-05 21:58 228 11 gusting 16 5.0
2019-Dec-05 21:54 190 12 gusting 16 5.0
2019-Dec-05 21:49 226 12 gusting 16 4.4
2019-Dec-05 21:44 206 12 gusting 17 4.4
2019-Dec-05 21:39 232 12 gusting 19 4.4
2019-Dec-05 21:34 231 12 gusting 19 4.4
2019-Dec-05 21:29 219 12 gusting 18 4.4
2019-Dec-05 21:24 229 12 gusting 18 4.4
2019-Dec-05 21:18 204 11 gusting 17 5.0
2019-Dec-05 21:14 208 11 gusting 17 5.0
2019-Dec-05 21:09 217 11 gusting 17 5.0
2019-Dec-05 21:04 187 10 gusting 16 5.0
2019-Dec-05 20:59 207 10 gusting 16 5.0
2019-Dec-05 20:54 233 10 gusting 15 5.0
2019-Dec-05 20:49 217 9 gusting 16 5.0
2019-Dec-05 20:44 235 10 gusting 16 4.4
2019-Dec-05 20:39 212 9 gusting 14 4.4
2019-Dec-05 20:34 235 8 gusting 14 4.4
2019-Dec-05 20:30 232 9 gusting 14 4.4
2019-Dec-05 20:25 221 9 gusting 16 4.4
2019-Dec-05 20:19 245 10 gusting 16 4.4
2019-Dec-05 20:15 234 10 gusting 16 4.4
2019-Dec-05 20:10 237 10 gusting 16 4.4
2019-Dec-05 20:05 231 9 gusting 16 4.4
2019-Dec-05 20:00 241 9 gusting 16 4.4
2019-Dec-05 19:54 207 12 gusting 19 4.4
2019-Dec-05 19:50 238 12 gusting 19 4.4
2019-Dec-05 19:44 241 13 gusting 19 4.4
2019-Dec-05 19:40 243 13 gusting 19 4.4
2019-Dec-05 19:35 229 13 gusting 18 5.0
2019-Dec-05 19:28 231 12 gusting 18 5.0
2019-Dec-05 19:23 226 11 gusting 18 5.0
2019-Dec-05 19:19 193 11 gusting 16 5.0
2019-Dec-05 19:15 198 11 gusting 17 5.0
2019-Dec-05 19:09 191 11 gusting 17 5.0
2019-Dec-05 19:05 207 12 gusting 17 5.0
2019-Dec-05 18:58 225 11 gusting 17 5.0
2019-Dec-05 18:54 228 10 gusting 16 5.0
2019-Dec-05 18:49 214 10 gusting 15 5.0
2019-Dec-05 18:44 231 10 gusting 15 5.0
2019-Dec-05 18:39 236 10 gusting 15 5.0
2019-Dec-05 18:34 231 11 gusting 17 5.0
2019-Dec-05 18:28 220 12 gusting 17 5.0
2019-Dec-05 18:23 231 12 gusting 17 5.0
2019-Dec-05 18:19 233 12 gusting 17 5.0
2019-Dec-05 18:13 193 12 gusting 17 5.0
2019-Dec-05 18:09 229 12 gusting 17 5.0
2019-Dec-05 18:02 219 11 gusting 17 5.6
2019-Dec-05 17:59 229 11 gusting 16 5.6
2019-Dec-05 17:54 234 10 gusting 15 5.6
2019-Dec-05 17:49 241 10 gusting 14 5.6
2019-Dec-05 17:43 205 10 gusting 14 5.6
2019-Dec-05 17:39 198 10 gusting 16 5.6
2019-Dec-05 17:33 225 10 gusting 16 5.6
2019-Dec-05 17:29 229 10 gusting 15 5.6
2019-Dec-05 17:23 205 10 gusting 15 5.6
2019-Dec-05 17:19 214 9 gusting 14 5.6
2019-Dec-05 17:14 226 10 gusting 16 5.6
2019-Dec-05 17:09 200 9 gusting 16 5.6
2019-Dec-05 17:04 198 8 gusting 14 5.6
2019-Dec-05 16:59 231 9 gusting 14 5.6
2019-Dec-05 16:53 208 11 gusting 17 5.6
2019-Dec-05 16:49 219 11 gusting 17 5.6
2019-Dec-05 16:44 236 11 gusting 17 5.6
2019-Dec-05 16:38 208 9 gusting 14 5.6
2019-Dec-05 16:33 231 8 gusting 14 5.6
2019-Dec-05 16:28 236 9 gusting 14 5.6
2019-Dec-05 16:24 192 10 gusting 14 5.6
2019-Dec-05 16:19 202 9 gusting 14 5.6
2019-Dec-05 16:13 205 9 gusting 14 5.6
2019-Dec-05 16:09 219 9 gusting 14 5.6
2019-Dec-05 16:03 230 9 gusting 14 5.0
2019-Dec-05 15:58 238 10 gusting 14 5.0
2019-Dec-05 15:54 183 10 gusting 15 5.0
2019-Dec-05 15:49 219 10 gusting 15 5.0
2019-Dec-05 15:44 228 10 gusting 15 5.0
2019-Dec-05 15:39 218 10 gusting 15 5.0
2019-Dec-05 15:33 229 10 gusting 15 5.0
2019-Dec-05 15:29 210 10 gusting 14 5.0
2019-Dec-05 15:24 188 9 gusting 14 5.0
2019-Dec-05 15:18 230 8 gusting 13 5.0
2019-Dec-05 15:14 195 8 gusting 12 5.0
2019-Dec-05 15:09 199 7 gusting 12 5.0
2019-Dec-05 15:04 191 7 gusting 12 5.0
2019-Dec-05 14:59 205 7 gusting 13 4.4
2019-Dec-05 14:53 207 8 gusting 13 4.4
2019-Dec-05 14:49 200 8 gusting 13 4.4
2019-Dec-05 14:44 243 9 gusting 13 4.4
2019-Dec-05 14:39 203 9 gusting 13 4.4
2019-Dec-05 14:34 188 8 gusting 13 4.4
2019-Dec-05 14:29 225 8 gusting 13 4.4
2019-Dec-05 14:24 201 8 gusting 13 4.4
2019-Dec-05 14:19 190 8 gusting 13 4.4
2019-Dec-05 14:14 239 8 gusting 15 4.4
2019-Dec-05 14:09 196 9 gusting 15 4.4
2019-Dec-05 14:04 206 9 gusting 13 4.4
2019-Dec-05 13:59 227 9 gusting 13 4.4
2019-Dec-05 13:54 231 8 gusting 13 4.4
2019-Dec-05 13:49 248 7 gusting 13 4.4
2019-Dec-05 13:44 206 7 gusting 12 4.4
2019-Dec-05 13:39 198 6 gusting 12 4.4
2019-Dec-05 13:33 227 6 gusting 11 4.4
2019-Dec-05 13:28 188 6 gusting 11 4.4
2019-Dec-05 13:24 231 6 gusting 9 4.4
2019-Dec-05 13:19 239 6 gusting 9 4.4
2019-Dec-05 13:13 234 6 gusting 10 4.4
2019-Dec-05 13:09 186 6 gusting 10 4.4
2019-Dec-05 13:04 212 2 gusting 10 4.4
2019-Dec-05 12:59
2019-Dec-05 12:53
2019-Dec-05 12:49
2019-Dec-05 12:44
2019-Dec-05 12:39
2019-Dec-05 12:35
2019-Dec-05 12:29
2019-Dec-05 12:23
2019-Dec-05 12:19
2019-Dec-05 12:13
2019-Dec-05 12:08
2019-Dec-05 12:04
2019-Dec-05 11:58
2019-Dec-05 11:53
2019-Dec-05 11:49
2019-Dec-05 11:44
2019-Dec-05 11:39
2019-Dec-05 11:34
2019-Dec-05 11:29
2019-Dec-05 11:24
2019-Dec-05 11:18
2019-Dec-05 11:15
2019-Dec-05 11:07
2019-Dec-05 11:04
2019-Dec-05 10:59
2019-Dec-05 10:54
2019-Dec-05 10:49
2019-Dec-05 10:44
2019-Dec-05 10:39
2019-Dec-05 10:32
2019-Dec-05 10:28
2019-Dec-05 10:23
2019-Dec-05 10:19
2019-Dec-05 10:14
2019-Dec-05 10:09
2019-Dec-05 10:05
2019-Dec-05 09:59
2019-Dec-05 09:54
2019-Dec-05 09:49
2019-Dec-05 09:44
2019-Dec-05 09:39
2019-Dec-05 09:34
2019-Dec-05 09:29
2019-Dec-05 09:24
2019-Dec-05 09:19
2019-Dec-05 09:13
2019-Dec-05 09:09
2019-Dec-05 09:03
2019-Dec-05 08:59
2019-Dec-05 08:53
2019-Dec-05 08:48
2019-Dec-05 08:43
2019-Dec-05 08:39
2019-Dec-05 08:34
2019-Dec-05 08:29
2019-Dec-05 08:24
2019-Dec-05 08:18
2019-Dec-05 08:12
2019-Dec-05 08:09
2019-Dec-05 08:04
2019-Dec-05 07:59
2019-Dec-05 07:54
2019-Dec-05 07:49
2019-Dec-05 07:44
2019-Dec-05 07:40
2019-Dec-05 07:34
2019-Dec-05 07:29
2019-Dec-05 07:23
2019-Dec-05 07:17
2019-Dec-05 07:14
2019-Dec-05 07:08
2019-Dec-05 07:03
2019-Dec-05 06:59
2019-Dec-05 06:54
2019-Dec-05 06:48
2019-Dec-05 06:44
2019-Dec-05 06:38
2019-Dec-05 06:34
2019-Dec-05 06:27
2019-Dec-05 06:24
2019-Dec-05 06:18
2019-Dec-05 06:14
2019-Dec-05 06:09
2019-Dec-05 06:04
2019-Dec-05 05:58
2019-Dec-05 05:51
2019-Dec-05 05:49
2019-Dec-05 05:42
2019-Dec-05 05:39
2019-Dec-05 05:34
2019-Dec-05 05:29
2019-Dec-05 05:23
2019-Dec-05 05:19
2019-Dec-05 05:14
2019-Dec-05 05:07
2019-Dec-05 05:04
2019-Dec-05 04:59 179 2 gusting 1 3.3
2019-Dec-05 04:54 179 2 gusting 4 3.3
2019-Dec-05 04:48 179 2 gusting 4 3.3
2019-Dec-05 04:44 179 2 gusting 4 3.3
2019-Dec-05 04:39 185 2 gusting 4 3.3
2019-Dec-05 04:34 186 2 gusting 5 3.3
2019-Dec-05 04:27 181 2 gusting 5 3.3
2019-Dec-05 04:24 184 1 gusting 4 3.3
2019-Dec-05 04:19 184 1 gusting 4 3.3
2019-Dec-05 04:14 181 2 gusting 4 3.3
2019-Dec-05 04:10 175 2 gusting 5 3.3
2019-Dec-05 04:05 231 1 gusting 5 3.3
2019-Dec-05 04:00 181 1 gusting 3 3.3
2019-Dec-05 03:55 182 0 gusting 4 3.3
2019-Dec-05 03:50 176 0 gusting 4 3.3
2019-Dec-05 03:45 175 1 gusting 5 3.3
2019-Dec-05 03:40 193 1 gusting 5 3.3
2019-Dec-05 03:34 183 1 gusting 5 3.3
2019-Dec-05 03:30 181 0 gusting 4 3.3
2019-Dec-05 03:24 175 1 gusting 4 3.3
2019-Dec-05 03:19 181 1 gusting 3 3.3
2019-Dec-05 03:14 175 0 gusting 3 2.8
2019-Dec-05 03:09 175 0 gusting 4 2.8
2019-Dec-05 03:04 177 0 gusting 4 2.8
2019-Dec-05 02:59 173 0 gusting 5 2.8
2019-Dec-05 02:53 174 0 gusting 5 3.3
2019-Dec-05 02:49 181 0 gusting 5 3.3
2019-Dec-05 02:43 173 0 gusting 5 3.3
2019-Dec-05 02:39 175 0 gusting 5 3.3
2019-Dec-05 02:34 182 4 gusting 8 4.4
2019-Dec-05 02:29 184 5 gusting 9 4.4
2019-Dec-05 02:24 191 5 gusting 9 4.4
2019-Dec-05 02:18 214 5 gusting 7 4.4
2019-Dec-05 02:14 233 5 gusting 8 3.9
2019-Dec-05 02:09 191 6 gusting 9 3.9
2019-Dec-05 02:04 200 6 gusting 10 3.9
2019-Dec-05 01:59 206 6 gusting 10 3.9
2019-Dec-05 01:54 195 6 gusting 10 3.9
2019-Dec-05 01:45 205 6 gusting 10 4.4
2019-Dec-05 01:44 231 6 gusting 10 4.4
2019-Dec-05 00:37 198 6 gusting 10 4.4
2019-Dec-05 00:34 198 6 gusting 11 3.9
2019-Dec-05 00:30 233 6 gusting 11 4.4
2019-Dec-05 00:25 204 6 gusting 11 4.4
2019-Dec-05 00:18 234 6 gusting 12 4.4
2019-Dec-05 00:15 235 6 gusting 12 4.4
2019-Dec-05 00:09 198 6 gusting 11 4.4
2019-Dec-05 00:05 226 6 gusting 11 4.4
2019-Dec-04 23:58 199 6 gusting 11 4.4
2019-Dec-04 23:55 200 4 gusting 10 3.9
2019-Dec-04 23:49 230 4 gusting 9 3.9
2019-Dec-04 23:44 229 1 gusting 6 3.3
2019-Dec-04 23:39 181 1 gusting 4 3.3
2019-Dec-04 23:34 184 1 gusting 4 3.3
2019-Dec-04 23:29 175 1 gusting 4 3.3
2019-Dec-04 23:23 176 0 gusting 5 3.3
2019-Dec-04 23:19 184 0 gusting 7 3.3
2019-Dec-04 23:13 183 0 gusting 7 3.3
2019-Dec-04 23:09 181 1 gusting 7 3.3
2019-Dec-04 23:04 176 0 gusting 3 3.3
2019-Dec-04 22:58 181 0 gusting 3 3.3
2019-Dec-04 22:54 174 0 gusting 6 3.3
2019-Dec-04 22:49 184 0 gusting 6 3.3
2019-Dec-04 22:42 176 1 gusting 5 3.3
2019-Dec-04 22:39 229 1 gusting 6 3.3
2019-Dec-04 22:33 182 1 gusting 6 3.3
2019-Dec-04 22:30 177 0 gusting 5 3.3
2019-Dec-04 22:25 181 0 gusting 5 3.3
2019-Dec-04 22:20 175 0 gusting 3 3.3
2019-Dec-04 22:15 175 0 gusting 5 3.3
2019-Dec-04 22:09 179 0 gusting 5 3.3
2019-Dec-04 22:04 184 0 gusting 5 3.3
2019-Dec-04 21:59 182 0 gusting 5 3.3
2019-Dec-04 21:55 155 0 gusting 5 3.3
2019-Dec-04 21:49 175 0 gusting 5 3.3
2019-Dec-04 21:44 179 0 gusting 6 3.3
2019-Dec-04 21:39 174 1 gusting 6 3.3
2019-Dec-04 21:34 176 0 gusting 5 3.3
2019-Dec-04 21:29 179 0 gusting 5 3.3
2019-Dec-04 21:24 172 0 gusting 4 3.3
2019-Dec-04 21:19 177 1 gusting 6 3.3
2019-Dec-04 21:14 174 1 gusting 6 3.3
2019-Dec-04 21:09 181 1 gusting 6 3.3
2019-Dec-04 21:03 173 0 gusting 6 3.3
2019-Dec-04 20:59 183 0 gusting 3 3.3
2019-Dec-04 20:53 181 0 gusting 3 3.3
2019-Dec-04 20:49 174 0 gusting 5 3.3
2019-Dec-04 20:44 155 0 gusting 5 3.3
2019-Dec-04 20:39 176 0 gusting 3 3.3
2019-Dec-04 20:34 184 0 gusting 4 3.3
2019-Dec-04 20:29 181 1 gusting 7 3.3
2019-Dec-04 20:24 184 1 gusting 7 3.9
2019-Dec-04 20:19 182 0 gusting 3 3.3
2019-Dec-04 20:14 174 0 gusting 3 3.3
2019-Dec-04 20:09 184 1 gusting 4 3.9
2019-Dec-04 20:04 179 2 gusting 8 3.9
2019-Dec-04 19:58 185 2 gusting 5 3.9
2019-Dec-04 19:54 185 2 gusting 5 3.9
2019-Dec-04 19:48 184 3 gusting 6 3.9
2019-Dec-04 19:44 184 4 gusting 6 3.9
2019-Dec-04 19:38 236 4 gusting 6 3.9
2019-Dec-04 19:34 198 4 gusting 8 3.9
2019-Dec-04 19:29 203 5 gusting 8 3.9
2019-Dec-04 19:24 237 5 gusting 8 3.9
2019-Dec-04 19:19 237 5 gusting 8 3.9
2019-Dec-04 19:14 236 5 gusting 8 3.9
2019-Dec-04 19:09 230 5 gusting 10 3.9
2019-Dec-04 19:04 235 6 gusting 10 3.9
2019-Dec-04 18:59 231 6 gusting 10 3.9
2019-Dec-04 18:54 228 5 gusting 9 3.9
2019-Dec-04 18:49 237 5 gusting 9 3.9
2019-Dec-04 18:44 233 5 gusting 7 3.9
2019-Dec-04 18:39 203 5 gusting 7 3.9
2019-Dec-04 18:34 206 5 gusting 9 3.9
2019-Dec-04 18:29 194 4 gusting 9 3.9
2019-Dec-04 18:24 182 4 gusting 6 3.9
2019-Dec-04 18:19 199 5 gusting 8 3.9
2019-Dec-04 18:14 229 5 gusting 8 3.9
2019-Dec-04 18:09 238 5 gusting 8 3.9
2019-Dec-04 18:04 190 4 gusting 9 3.9
2019-Dec-04 17:59 231 5 gusting 9 3.9
2019-Dec-04 17:54 230 6 gusting 9 3.9
2019-Dec-04 17:49 228 5 gusting 9 3.9
2019-Dec-04 17:44 231 3 gusting 8 3.9
2019-Dec-04 17:39 235 3 gusting 6 3.9
2019-Dec-04 17:34 235 3 gusting 7 3.9
2019-Dec-04 17:28 195 2 gusting 5 3.9
2019-Dec-04 17:23 185 2 gusting 4 3.9
2019-Dec-04 17:19 182 1 gusting 3 3.9
2019-Dec-04 17:14 182 1 gusting 3 3.9
2019-Dec-04 17:08 182 0 gusting 2 3.9
2019-Dec-04 17:04 182 0 gusting 3 3.9
2019-Dec-04 16:59 185 1 gusting 3 3.9
2019-Dec-04 16:53 184 0 gusting 2 3.3
2019-Dec-04 16:49 181 0 gusting 2 3.3
2019-Dec-04 16:45 181 0 gusting 2 3.3
2019-Dec-04 16:40 181 0 gusting 1 3.3
2019-Dec-04 16:35 181 0 gusting 2 3.3
2019-Dec-04 16:30 181 0 gusting 2 3.3
2019-Dec-04 16:24 181 0 gusting 2 2.8
2019-Dec-04 16:19 176 0 gusting 2 2.8
2019-Dec-04 16:14 176 0 gusting 2 3.3
2019-Dec-04 16:10 179 0 gusting 2 3.3
2019-Dec-04 16:04 179 0 gusting 2 3.3
2019-Dec-04 15:59 184 0 gusting 3 2.8
2019-Dec-04 15:54 174 0 gusting 3 2.8
2019-Dec-04 15:49 183 0 gusting 2 2.8
2019-Dec-04 15:44 185 0 gusting 2 2.8
2019-Dec-04 15:38 182 0 gusting 3 2.8
2019-Dec-04 15:33 176 0 gusting 3 2.8
2019-Dec-04 15:29 176 0 gusting 2 2.8
2019-Dec-04 15:24 176 0 gusting 3 2.8
2019-Dec-04 15:19 176 0 gusting 3 2.8
2019-Dec-04 15:14 183 0 gusting 3 2.8
2019-Dec-04 15:09 181 0 gusting 4 2.8
2019-Dec-04 15:03 181 0 gusting 4 2.8
2019-Dec-04 14:59 181 0 gusting 3 2.8
2019-Dec-04 14:55 175 0 gusting 3 2.8
2019-Dec-04 14:50 175 0 gusting 3 2.8
2019-Dec-04 14:45 184 0 gusting 3 2.2
2019-Dec-04 14:40 183 0 gusting 3 2.2
2019-Dec-04 14:35 174 0 gusting 3 2.2
2019-Dec-04 14:29 182 0 gusting 3 2.2
2019-Dec-04 14:23 182 0 gusting 5 2.2
2019-Dec-04 14:19 182 0 gusting 5 2.2
2019-Dec-04 14:14 176 0 gusting 5 1.7
2019-Dec-04 14:09 173 0 gusting 4 1.7
2019-Dec-04 14:04 173 0 gusting 6 1.7
2019-Dec-04 13:59 175 0 gusting 6 1.7
2019-Dec-04 13:53 176 0 gusting 6 1.7
2019-Dec-04 13:48 179 0 gusting 6 1.1
2019-Dec-04 13:44 176 0 gusting 6 1.1
2019-Dec-04 13:38 176 0 gusting 4 1.1
2019-Dec-04 13:34 153 0 gusting 4 1.1
2019-Dec-04 13:28 181 0 gusting 4 0.6
2019-Dec-04 13:24 176 0 gusting 4 0.6
2019-Dec-04 13:19 175 0 gusting 3 0.6
2019-Dec-04 13:14 131 0 gusting 4 0.6
2019-Dec-04 13:10 132 0 gusting 4 0.6
2019-Dec-04 13:04 169 0 gusting 5 0.6
2019-Dec-04 13:00 155 0 gusting 5 0.6
2019-Dec-04 12:54 236 6 gusting 5 0.6
2019-Dec-04 12:48
2019-Dec-04 12:44
2019-Dec-04 12:39
2019-Dec-04 12:34
2019-Dec-04 12:28
2019-Dec-04 12:24
2019-Dec-04 12:18
2019-Dec-04 12:13
2019-Dec-04 12:09
2019-Dec-04 12:04
2019-Dec-04 11:58
2019-Dec-04 11:54
2019-Dec-04 11:49
2019-Dec-04 11:44
2019-Dec-04 11:38
2019-Dec-04 11:34
2019-Dec-04 11:29
2019-Dec-04 11:24
2019-Dec-04 11:18
2019-Dec-04 11:14
2019-Dec-04 11:09
2019-Dec-04 11:04
2019-Dec-04 10:59
2019-Dec-04 10:54
2019-Dec-04 10:49
2019-Dec-04 10:44
2019-Dec-04 10:38
2019-Dec-04 10:34
2019-Dec-04 10:29
2019-Dec-04 10:24
2019-Dec-04 10:20
2019-Dec-04 10:14
2019-Dec-04 10:07
2019-Dec-04 10:04
2019-Dec-04 09:59
2019-Dec-04 09:52
2019-Dec-04 09:49
2019-Dec-04 09:44
2019-Dec-04 09:39
2019-Dec-04 09:34
2019-Dec-04 09:28
2019-Dec-04 09:25
2019-Dec-04 09:18
2019-Dec-04 09:14
2019-Dec-04 09:09
2019-Dec-04 09:04
2019-Dec-04 08:59
2019-Dec-04 08:53
2019-Dec-04 08:49
2019-Dec-04 08:43
2019-Dec-04 08:39
2019-Dec-04 08:34
2019-Dec-04 08:28
2019-Dec-04 08:24
2019-Dec-04 08:19
2019-Dec-04 08:15
2019-Dec-04 08:09
2019-Dec-04 08:04
2019-Dec-04 07:56
2019-Dec-04 07:53
2019-Dec-04 07:48
2019-Dec-04 07:44
2019-Dec-04 07:38
2019-Dec-04 07:34
2019-Dec-04 07:28
2019-Dec-04 07:24
2019-Dec-04 07:19
2019-Dec-04 07:14 236 6 gusting 10 1.7
2019-Dec-04 07:08 236 6 gusting 10 1.7
2019-Dec-04 07:05 236 6 gusting 10 1.7
2019-Dec-04 06:59 236 6 gusting 10 1.7
2019-Dec-04 06:55 193 7 gusting 12 2.2
2019-Dec-04 06:50 212 7 gusting 12 1.7
2019-Dec-04 06:45 242 7 gusting 11 1.7
2019-Dec-04 06:40 234 6 gusting 12 1.7
2019-Dec-04 06:35 228 6 gusting 12 1.7
2019-Dec-04 06:30 240 7 gusting 12 1.7
2019-Dec-04 06:24 248 7 gusting 12 1.7
2019-Dec-04 06:20 231 6 gusting 12 1.7
2019-Dec-04 06:14 242 6 gusting 11 1.7
2019-Dec-04 06:10 235 6 gusting 11 1.7
2019-Dec-04 06:05 233 6 gusting 10 1.7
2019-Dec-04 05:58 190 6 gusting 11 1.7
2019-Dec-04 05:54 229 6 gusting 11 1.7
2019-Dec-04 05:49 186 6 gusting 11 1.7
2019-Dec-04 05:44 230 6 gusting 10 1.7
2019-Dec-04 05:39 237 6 gusting 11 1.7
2019-Dec-04 05:34 248 6 gusting 12 1.7
2019-Dec-04 05:29 238 6 gusting 12 1.7
2019-Dec-04 05:23 236 6 gusting 13 1.7
2019-Dec-04 05:19 248 7 gusting 13 1.7
2019-Dec-04 05:14 238 8 gusting 13 1.7
2019-Dec-04 05:09 236 8 gusting 13 1.7
2019-Dec-04 05:04 224 8 gusting 13 1.7